Location: Alpine Heights
(32.8181°N, 116.7809°W)
Time: 23:43:37
(UTC+00:00)

Centaur D AC-29 - Pass Details

Date: 14 April 2021
Orbit: 482 x 36355 km, 26.2° (Epoch: 15 May)

Event Time Altitude Azimuth Distance (km) Brightness Sun altitude
Exits shadow 12:05:39 21° 203° (SSW) 1,128 2.0 -15.4°
Maximum altitude 12:05:57 21° 194° (SSW) 1,110 2.0 -15.3°
Drops below altitude 10° 12:08:25 10° 139° (SE) 1,743 3.6 -14.9°
Sets 12:11:17 0° 121° (ESE) 3,130 5.2 -14.3°
